EW8956 Weather Reports


time (UTC)temp
F
wind
direction
speed
knots
gust
knots
rain 1hr
in
rain 24hr
in
rain mn
in
humidity
%
barometer
mb
20260903234556 90 0 0.0 0.0 0.00 0.00 0.00 55 1016.7
20260903233059 91 0 0.0 1.7 0.00 0.00 0.00 54 1016.5
20260903231553 91 0 0.0 3.5 0.00 0.00 0.00 53 1016.5
20260903230100 92 64 0.0 3.5 0.00 0.00 0.00 52 1016.5
20260903224550 92 0 0.0 3.5 0.00 0.00 0.00 51 1016.5
20260903223103 93 125 0.0 2.6 0.00 0.00 0.00 51 1016.4
20260903221555 93 0 0.0 5.2 0.00 0.00 0.00 47 1016.5
20260903220055 94 0 0.0 6.1 0.00 0.00 0.00 48 1016.7
20260903214552 94 0 0.9 8.7 0.00 0.00 0.00 47 1016.8
20260903213055 95 0 0.9 7.8 0.00 0.00 0.00 47 1016.7
20260903211606 95 0 0.0 5.2 0.00 0.00 0.00 47 1016.7
20260903210053 95 0 0.0 3.5 0.00 0.00 0.00 48 1016.7
20260903204548 95 0 0.9 5.2 0.00 0.00 0.00 47 1016.9
20260903203056 96 93 0.0 7.0 0.00 0.00 0.00 47 1016.9
20260903201557 95 0 0.9 3.5 0.00 0.00 0.00 48 1017.1
20260903200051 95 0 0.0 3.5 0.00 0.00 0.00 48 1017.2
20260903194557 95 0 0.9 6.1 0.00 0.00 0.00 49 1017.4
20260903193107 94 0 0.9 6.1 0.00 0.00 0.00 48 1017.5
20260903191552 95 111 0.9 7.8 0.00 0.00 0.00 49 1017.7
20260903190054 94 0 1.7 5.2 0.00 0.00 0.00 50 1017.8
20260903184555 94 0 0.0 2.6 0.00 0.00 0.00 48 1017.9
20260903183056 96 0 0.9 3.5 0.00 0.00 0.00 44 1018.1
20260903181554 96 119 0.0 3.5 0.00 0.00 0.00 45 1018.3
20260903180050 95 118 0.9 5.2 0.00 0.00 0.00 44 1018.5
20260903174546 95 0 0.9 3.5 0.00 0.00 0.00 45 1018.6
20260903173104 94 106 1.7 5.2 0.00 0.00 0.00 47 1018.8
20260903171600 95 0 0.0 2.6 0.00 0.00 0.00 49 1018.8
20260903170106 94 0 0.0 3.5 0.00 0.00 0.00 47 1019.0
20260903164607 94 0 0.0 4.3 0.00 0.00 0.00 48 1019.2
20260903163055 94 0 0.0 3.5 0.00 0.00 0.00 53 1019.3
20260903161552 93 0 0.0 2.6 0.00 0.00 0.00 52 1019.4
20260903160106 93 0 0.0 0.9 0.00 0.00 0.00 53 1019.5
20260903154553 92 0 0.0 1.7 0.00 0.00 0.00 53 1019.5
20260903153106 93 0 0.0 0.9 0.00 0.00 0.00 56 1019.7
20260903151549 91 0 0.0 0.9 0.00 0.00 0.00 54 1019.8
20260903150057 90 0 0.0 1.7 0.00 0.00 0.00 56 1019.8
20260903144558 90 0 0.0 0.0 0.00 0.00 0.00 59 1019.7
20260903143057 89 0 0.0 0.0 0.00 0.00 0.00 60 1019.6
20260903141552 88 0 0.0 0.0 0.00 0.00 0.00 64 1019.7
20260903140057 86 0 0.0 0.0 0.00 0.00 0.00 68 1019.7
20260903134601 85 0 0.0 0.0 0.00 0.00 0.00 69 1019.6
20260903133105 84 0 0.0 0.0 0.00 0.00 0.00 74 1019.6
20260903131552 81 0 0.0 0.0 0.00 0.00 0.00 78 1019.6
20260903130059 81 0 0.0 0.0 0.00 0.00 0.00 78 1019.6
20260903124606 79 0 0.0 0.0 0.00 0.00 0.00 81 1019.6
20260903123052 78 0 0.0 0.0 0.00 0.00 0.00 82 1019.6
20260903121549 77 0 0.0 0.0 0.00 0.00 0.00 84 1019.6
20260903120058 75 0 0.0 0.0 0.00 0.00 0.00 87 1019.6
20260903114554 74 0 0.0 0.0 0.00 0.00 0.00 89 1019.4
20260903113051 73 0 0.0 0.0 0.00 0.00 0.00 90 1019.2
20260903111551 73 0 0.0 0.0 0.00 0.00 0.00 90 1019.0
20260903110058 73 0 0.0 0.0 0.00 0.00 0.00 90 1019.0
20260903104556 73 0 0.0 0.0 0.00 0.00 0.00 91 1018.9
20260903103053 73 0 0.0 0.0 0.00 0.00 0.00 91 1018.9
20260903101553 73 0 0.0 0.0 0.00 0.00 0.00 91 1018.9
20260903100100 73 0 0.0 0.0 0.00 0.00 0.00 91 1018.8
20260903094609 73 0 0.0 0.0 0.00 0.00 0.00 91 1018.8
20260903093101 74 0 0.0 0.0 0.00 0.00 0.00 91 1018.7
20260903091555 74 0 0.0 0.0 0.00 0.00 0.00 90 1018.6
20260903084553 74 0 0.0 0.0 0.00 0.00 0.00 89 1018.5
20260903083058 74 0 0.0 0.0 0.00 0.00 0.00 89 1018.5
20260903081608 74 0 0.0 0.0 0.00 0.00 0.00 89 1018.4
20260903080054 74 0 0.0 0.0 0.00 0.00 0.00 89 1018.3
20260903074605 74 0 0.0 0.0 0.00 0.00 0.00 87 1018.3
20260903073135 74 0 0.0 0.0 0.00 0.00 0.00 88 1018.1
20260903071618 74 0 0.0 0.0 0.00 0.00 0.00 88 1018.1
20260903070056 75 0 0.0 0.0 0.00 0.00 0.00 87 1018.2
20260903064552 75 0 0.0 0.0 0.00 0.00 0.00 87 1018.3
20260903063102 76 0 0.0 0.0 0.00 0.00 0.00 87 1018.2
20260903061558 76 0 0.0 0.0 0.00 0.00 0.00 87 1018.3
20260903060131 76 0 0.0 0.0 0.00 0.00 0.00 85 1018.3
20260903054553 76 0 0.0 0.0 0.00 0.00 0.00 84 1018.4
20260903053052 76 0 0.0 0.0 0.00 0.00 0.00 83 1018.3
20260903051601 77 0 0.0 0.0 0.00 0.00 0.00 83 1018.4
20260903050053 77 0 0.0 0.0 0.00 0.00 0.00 84 1018.4
20260903044601 77 0 0.0 0.0 0.00 0.00 0.00 83 1018.3
20260903043053 77 0 0.0 0.0 0.00 0.00 0.00 81 1018.2
20260903041553 78 0 0.0 0.0 0.00 0.00 0.00 80 1018.3
20260903040108 78 0 0.0 0.0 0.00 0.00 0.00 80 1018.3
20260903034557 78 0 0.0 0.0 0.00 0.00 0.00 80 1018.4
20260903033054 79 0 0.0 0.0 0.00 0.00 0.00 81 1018.6
20260903031552 79 0 0.0 0.0 0.00 0.00 0.00 79 1018.6
20260903030103 79 0 0.0 0.0 0.00 0.00 0.00 79 1018.8
20260903024600 80 0 0.0 0.0 0.00 0.00 0.00 78 1018.8
20260903023102 80 0 0.0 0.0 0.00 0.00 0.00 77 1018.8
20260903021600 81 0 0.0 0.0 0.00 0.00 0.00 77 1019.2
20260903020048 81 0 0.0 0.0 0.00 0.00 0.00 76 1019.1
20260903014601 82 0 0.0 0.0 0.00 0.00 0.00 75 1019.1
20260903013055 83 0 0.0 0.0 0.00 0.00 0.00 74 1019.1
20260903011552 83 0 0.0 0.0 0.00 0.00 0.00 73 1019.0
20260903010052 84 0 0.0 0.0 0.00 0.00 0.00 71 1018.8
20260903004600 85 0 0.0 0.0 0.00 0.00 0.00 66 1018.7
20260903003055 86 0 0.0 0.0 0.00 0.00 0.00 63 1018.5
20260903001554 87 0 0.0 0.0 0.00 0.00 0.00 61 1018.3
20260903000053 88 0 0.0 0.0 0.00 0.00 0.00 59 1018.3